Location: Arbon
(43.0005°N, 0.7472°E)
Time: 06:33:46
(UTC+00:00)

Vanguard 2 Rocket - Pass Details

Date: 21 June 2021
Orbit: 554 x 3325 km, 32.9° (Epoch: 26 July)

Event Time Altitude Azimuth Distance (km) Brightness Sun altitude
Rises 22:15:48 0° 269° (W) 7,210 11.8 -19.4°
Reaches altitude 10° 22:21:10 10° 266° (W) 5,994 11.3 -19.8°
Maximum altitude 22:37:38 50° 199° (SSW) 2,743 8.9 -21.0°
Enters shadow 22:44:00 27° 141° (SE) 3,030 9.0 -21.4°
